Flag for Brazil Weather past 2 weeks in Belém, Pará, Brazil

Now
77 °F

Passing clouds.


Feels Like: 78 °F
Forecast: 76 / 91 °F
Wind: 8 mph from East

Location: Belem Aeroporto

Current Time: Aug 31, 2015 at 11:20:02 PM

Latest Report: Aug 31, 2015 at 11:00 PM


Visibility: N/A

Pressure: 29.98 "Hg

Humidity: 89%

Dew point: 73 °F

Location of BelémLocation

Historic Weather in Belém — Graph

°F

Belém temperature yesterday

Maximum temperature yesterday: 90 °F (at 3:00 PM)
Minimum temperature yesterday: 75 °F (at 3:00 AM)
Average temperature yesterday: 82 °F

Past Weeks' High & Low Weather Summary

 TemperatureHumidityPressure
High91 °F (Aug 26, 2:00 PM)94% (Aug 17, 7:00 AM)29.98 "Hg (Aug 17, 7:00 AM)
Low73 °F (Aug 23, 4:00 AM)49% (Aug 26, 2:00 PM)29.77 "Hg (Aug 24, 4:00 PM)
Average81 °F78%29.89 "Hg
* Reported Aug 16 10:00 PM — Aug 31 10:00 PM, Belém, Weather by CustomWeather, © 2015

Note: Actual official high and low records may vary slightly from our data, if they occured in-between our weather recording intervals... More about our weather records

Advertising

Belém weather history for previous 24 hours

 ConditionsComfort  
Time TempWeatherWind HumidityBarometerVisibility
10:00 PM
Mon, Aug 31
77 °FPassing clouds.9 mph89%29.98 "HgN/A
9:00 PM77 °FPartly cloudy.3 mph89%29.95 "HgN/A
8:00 PM75 °FPartly cloudy.2 mph94%29.92 "HgN/A
7:00 PM81 °FPartly cloudy.8 mph84%29.92 "HgN/A
6:00 PM81 °FBroken clouds.30 mph84%29.89 "HgN/A
5:00 PM81 °FPartly sunny.12 mph89%29.86 "HgN/A
4:00 PM82 °FPartly sunny.9 mph79%29.86 "HgN/A
3:00 PM82 °FPartly sunny.10 mph79%29.89 "HgN/A
2:00 PM86 °FPartly sunny.12 mph70%29.89 "HgN/A
1:00 PM86 °FPartly sunny.8 mph66%29.92 "HgN/A
12:00 PM86 °FPartly sunny.7 mph59%29.95 "HgN/A
11:00 AM84 °FSunny.12 mph66%29.98 "Hg10 mi
10:00 AM84 °FScattered clouds.12 mph66%29.98 "HgN/A
9:00 AM82 °FPassing clouds.16 mph70%29.95 "HgN/A
8:00 AM79 °FSunny.12 mph84%29.92 "Hg10 mi
7:00 AM73 °FSunny.9 mph94%29.92 "Hg10 mi
6:00 AM73 °FClear.6 mph89%29.92 "Hg10 mi
5:00 AM73 °FClear.5 mph89%29.92 "Hg10 mi
4:00 AM73 °FClear.7 mph89%29.89 "Hg10 mi
3:00 AM73 °FClear.9 mph89%29.89 "Hg10 mi
2:00 AM75 °FClear.9 mph89%29.92 "Hg10 mi
1:00 AM75 °FClear.7 mph89%29.95 "Hg10 mi
12:00 AM77 °FClear.9 mph83%29.95 "Hg10 mi
11:00 PM
Sun, Aug 30
77 °FClear.12 mph83%29.95 "Hg10 mi
Weather by CustomWeather, © 2015

See weather overviewHow to use our weather pages